COSMOS 1275 DEB

Satellite information

Favourite Embed

Satellite Type and Status

DEBRISIN ORBIT

Key statistics

Satellite COSMOS 1275 DEB at a glance.

Uptime

16264

Days in orbit

Revolutions

≈ 13.9

Per day

Orbit

LEO

Low Earth Orbit

Inclination

82.7

Latest

Satellite identification and parameters

Extended collection of information and parameters for COSMOS 1275 DEB.

Object identification

Identified? True

Debris? True

Object name: COSMOS 1275 DEB

International designator: 1981-053FQ

Object number (NORAD): 13468

Object ID (CCSDS): 13468

Country: COMMONWEALTH OF INDEPENDENT STATES (CIS)

Current information (Y/N): Y

RCS size: SMALL

Orbital parameters

Period: 103.404 minutes

Inclination: 82.7038 deg

SMA: 7297.685 km

Apoapsis: 966.109 km

Periapsis: 872.991 km

RAAN: 296.052 deg

Eccentricy: 0.00637994

Argument of periapsis: 5.1807 deg

Mean anomaly: 116.0491 deg

Mean motion: 13.92595815 rev/day

Mean motion (dot): 0.00002673 rev/day2

B* drag term: 0.0020273049 1/REarth

Two-line elements (TLE)

Creation date: Dec. 12, 2025, 10:14 a.m.

Reference frame: TEME

Reference center: EARTH

Epoch: Dec. 12, 2025, 7:34 a.m. UTC

TLE line 0: 0 COSMOS 1275 DEB

TLE line 1: 1 13468U 81053FQ 25346.31552434 .00002673 00000-0 20273-2 0 9990

TLE line 2: 2 13468 82.7038 296.0520 0063799 5.1807 116.0491 13.92595815191057

Live tracking on map

Real-time ground track for satellite COSMOS 1275 DEB.

In-orbit conjunctions

A list of the most updated potential collisions computed for object COSMOS 1275 DEB.

Target Orbit TCA Probability of collision Miss distance Type
COSMOS 1417 DEB LEO 2025-09-23 16:36:40 0.0001676025 112.0 (m) DEBRIS
FENGYUN 1C DEB SSO 2025-02-18 12:47:19 0.0001585798 183.0 (m) DEBRIS

Associated space launch

Navigation satellite providing location information for the Tsiklon-B navigation system

COSMOS 1275 DEB was lifted into orbit during the mission ‘Kosmos-3M | Parus 27’, on board a Kosmos-3M space rocket.

The launch took place on June 4, 1981, 3:41 p.m. from 132/2.

For more information about the launch, click the button.

Launch to space Kosmos-3M | Parus 27
Kosmos-3M | Parus 27

Agency: N/A

Status: Launch Successful

Launch date: June 4, 1981, 3:41 p.m. UTC

Rocket: Kosmos-3M

Launch pad: 132/2

Location: Plesetsk Cosmodrome, Russian Federation

...

Latest news about this satellite

There are no fresh news available about this satellite. Check back as we update our databases every day.


Newsletter sign-up

Weekly statistics, charts and insights to help you stay on top of the space industry.